RH
32 32 32 30 28 27 24 21 19 19 18 17 18 19 21 22 21 20 18 15 15 20 22 22 23 23 31 30 32 32 27 24 22
27 29 28 24 21 21 22 23 22 22 21 19 18 16 17 17 20 23 24 23 23 21 22 23 24 26 33 75 79 82 80 76 67
33 28 27 26 23 20 19 19 20 20 21 22 22 24 25 27 27 26 24 23 24 26 27 26 25 26 26 27 27 29 40 48 66
41 37 32 29 27 26 24 24 24 24 24 24 26 27 28 28 28 28 27 26 27 28 27 26 26 27 28 28 28 30 30 32 33
43 42 40 37 35 34 33 32 32 32 32 31 31 29 28 28 29 30 30 29 29 29 28 27 26 27 27 28 28 28 30 31 31
42 44 41 43 42 42 42 42 42 41 41 41 39 36 33 31 32 32 31 30 30 29 28 27 26 26 26 26 25 24 24 24 25
44 43 42 41 42 43 43 44 44 45 46 48 47 44 40 34 34 33 32 31 29 28 27 25 22 18 16 14 13 11 10 9 9
45 46 45 43 44 44 44 44 44 43 42 43 47 49 46 38 37 35 33 30 29 29 26 22 18 14 12 11 11 11 11 11 11
47 47 47 46 47 47 48 49 50 48 46 45 45 47 44 36 37 35 32 32 32 30 28 26 22 18 15 15 16 16 16 16 16
48 48 49 48 49 50 52 56 61 58 55 51 48 45 40 38 37 35 35 33 30 28 27 25 23 21 20 18 17 17 16 16 15
49 49 50 50 52 52 56 62 63 58 54 54 58 55 44 39 38 37 35 34 35 34 32 29 26 22 20 18 18 17 17 16 16
51 52 52 54 54 55 61 62 60 62 60 57 62 58 47 41 40 38 37 39 42 41 38 34 30 26 23 22 20 20 19 18 18
54 56 58 57 55 56 57 56 58 60 60 64 72 70 61 48 41 41 46 48 47 46 43 41 38 33 30 27 25 24 23 21 20
53 54 56 54 54 55 57 57 56 60 68 75 80 85 87 78 49 45 52 54 54 51 49 49 48 47 45 43 40 34 28 23 20
49 53 55 53 56 60 53 51 59 68 77 83 89 87 83 79 53 54 57 60 64 66 55 49 52 52 51 48 45 39 30 24 21
52 52 52 53 56 60 54 64 68 75 87 88 94 76 88 85 62 61 67 56 60 54 49 48 50 53 52 49 44 37 27 21 19
60 60 59 59 62 61 63 68 71 77 92 93 96 88 86 85 79 79 68 65 58 53 50 49 50 53 53 48 39 27 20 18 16
67 69 65 62 61 64 70 71 74 76 86 98 99 85 93 92 83 88 72 65 58 55 52 52 51 53 53 47 34 22 18 16 15
74 74 73 69 68 69 75 74 75 78 81 93 99 100 98 91 92 83 70 65 60 58 56 54 53 56 54 43 28 20 17 16 17
68 74 75 77 78 82 81 76 75 76 81 86 99 100 99 98 82 71 68 66 64 61 58 57 57 58 50 31 19 18 18 18 18
Wind_Speed
3 2 3 3 2 2 2 2 1 1 2 2 2 3 4 4 6 7 7 8 7 6 7 7 7 7 7 7 7 7 7 6 6
4 3 3 2 2 2 1 2 3 3 3 3 4 4 4 4 4 5 6 7 6 6 6 7 7 8 7 5 5 6 7 7 5
4 4 3 3 3 3 3 3 3 4 4 5 5 5 5 4 5 6 7 7 8 7 7 8 8 8 9 9 8 9 9 8 6
5 4 3 3 3 3 4 4 5 5 6 7 7 7 7 7 7 7 8 8 9 9 10 10 10 10 10 11 12 12 12 12 13
6 5 4 2 2 2 3 3 4 5 6 7 7 8 9 10 10 9 8 8 9 10 12 12 13 13 14 14 15 15 16 16 16
5 6 4 3 2 1 2 3 4 6 7 8 10 12 13 14 13 11 10 9 10 12 14 14 15 16 17 17 17 17 18 18 19
4 5 5 4 3 2 2 3 5 6 8 10 11 12 14 15 14 13 12 12 11 13 16 16 16 16 17 18 17 17 17 18 18
8 6 6 7 5 4 4 4 6 8 9 10 12 13 14 15 14 14 14 15 15 15 17 17 17 16 16 17 17 17 16 16 17
11 10 9 9 8 8 7 5 6 9 11 12 12 13 14 14 13 14 15 17 17 17 18 19 18 18 17 17 17 17 17 18 19
14 13 12 12 11 11 9 8 10 12 14 15 15 15 14 13 13 15 16 17 18 18 18 19 20 20 19 19 19 19 19 19 20
16 15 14 15 14 14 12 14 14 13 15 16 16 16 15 14 15 16 17 16 17 18 18 19 21 21 21 20 20 21 21 22 22
18 17 16 17 16 15 16 17 16 15 17 17 17 15 15 16 17 17 18 17 17 18 18 18 20 22 23 23 23 22 23 24 25
18 18 17 18 17 17 17 17 17 18 18 17 15 15 16 18 19 19 18 17 16 17 18 19 20 23 24 26 26 26 26 26 27
20 18 18 18 18 18 18 18 19 18 16 16 15 17 21 21 20 18 17 16 17 19 21 22 23 25 27 28 29 30 30 30 30
21 20 20 21 20 20 19 19 18 18 17 17 17 20 21 20 20 19 18 19 21 25 27 25 26 27 30 31 32 32 32 33 33
23 21 20 22 21 21 21 20 18 19 18 18 20 24 23 22 22 23 28 29 25 25 26 28 29 31 32 34 35 35 35 35 36
25 22 21 21 23 24 22 21 21 20 20 20 22 23 24 24 24 25 23 24 24 27 28 30 32 33 34 36 36 37 36 37 38
27 24 23 23 22 24 24 24 24 22 22 23 25 25 26 26 27 25 25 26 27 29 32 34 36 37 37 38 38 38 38 39 40
29 26 26 25 23 24 25 27 26 27 26 25 26 27 27 28 29 26 27 29 30 32 34 37 40 41 42 41 41 41 41 42 42
33 32 30 28 27 24 26 28 30 31 30 30 28 27 29 28 27 29 30 31 32 34 37 41 44 44 44 44 44 44 44 44 45
Wind_Direction
357 342 342 343 344 348 349 353 330 325 326 321 312 306 305 309 305 299 292 292 294 299 299 303 300 304 310 311 316 316 311 307 313
8 6 8 359 347 351 340 329 335 335 332 331 336 330 337 332 314 312 301 295 298 298 308 304 308 309 318 356 347 345 330 317 311
15 21 28 35 30 31 36 35 24 9 1 1 357 351 338 324 307 300 298 301 301 306 305 304 305 306 309 303 296 286 277 281 273
4 7 16 38 47 48 43 33 25 10 2 1 353 338 323 310 300 297 295 297 301 304 304 303 305 306 301 297 293 287 284 278 274
351 345 345 358 34 43 49 32 12 358 353 351 339 328 321 314 309 302 296 296 297 300 301 304 305 303 298 295 291 290 287 284 280
343 331 322 314 328 1 18 357 348 345 343 338 331 328 325 318 309 303 298 294 294 302 301 303 303 302 298 294 293 290 287 284 282
279 312 306 296 298 305 315 318 328 330 329 326 324 323 321 316 308 303 300 300 303 303 299 301 299 299 296 294 293 290 288 287 285
266 265 280 278 275 267 272 292 314 324 323 321 318 316 315 311 302 300 302 305 305 302 300 300 300 300 297 295 293 291 291 289 286
261 260 261 265 266 266 271 285 306 308 311 312 308 306 306 304 300 300 305 307 307 306 305 303 302 300 296 293 292 292 290 288 287
255 255 254 258 259 260 263 271 294 304 308 308 303 301 300 297 293 298 302 304 307 307 307 306 303 301 299 298 297 295 292 290 289
253 254 254 256 257 260 261 279 285 292 301 299 303 304 302 295 294 296 298 301 304 305 306 306 305 305 304 301 298 297 296 295 291
252 252 252 254 256 258 269 276 283 287 291 294 301 302 301 296 294 294 294 298 302 303 304 306 307 305 304 302 301 299 297 296 293
251 249 248 249 255 262 268 275 280 285 288 291 296 301 302 296 292 292 295 298 301 303 306 309 309 307 306 305 304 302 300 297 296
255 250 249 255 260 262 267 272 278 283 281 288 291 305 308 297 288 284 290 299 308 308 309 310 309 308 307 306 305 303 301 298 296
254 250 254 263 263 263 267 269 276 280 277 283 293 305 310 298 285 281 284 293 301 307 307 305 308 309 308 307 304 302 300 298 296
253 252 258 264 264 261 262 269 274 279 273 277 285 297 304 298 282 285 293 286 294 292 301 305 309 310 308 305 302 300 298 297 295
251 254 258 260 261 259 266 267 271 276 272 273 276 286 297 297 286 282 285 288 294 296 301 305 307 306 304 303 301 299 297 296 295
249 252 255 256 258 260 265 264 270 275 272 270 273 291 290 299 288 278 286 291 294 298 303 305 306 305 303 302 299 298 297 296 295
253 252 255 253 260 262 263 268 269 272 275 270 272 277 285 292 289 274 285 290 294 299 302 305 306 305 304 302 300 298 297 296 295
258 255 255 257 263 269 269 269 273 272 270 269 275 272 285 288 279 280 284 287 293 298 303 306 306 304 304 302 300 299 298 296 295